Regional Weather Roundup
Issued by NWS

Home | Current Version | Previous Version | Text Only | Print | Product List | Glossary Off
Versions: 1 2 3 4 5 6 7 8 9 10 11 12 13 14 15 16 17 18 19 20 21 22 23 24 25 26 27 28 29 30 31 32 33 34 35 36 37 38 39 40 41 42 43 44 45 46 47 48 49 50

000
ASUS43 KMKX 171521
RWRWI

WISCONSIN REGIONAL WEATHER ROUNDUP
NATIONAL WEATHER SERVICE MILWAUKEE/SULLIVAN WI
1000 AM CDT THU APR 17 2014

NOTE: "FAIR" INDICATES FEW OR NO CLOUDS BELOW 12,000 FEET WITH NO
SIGNIFICANT WEATHER AND/OR OBSTRUCTIONS TO VISIBILITY.

WIZ001-002-006>008-014>016-023>028-171600-
NORTHWEST WISCONSIN

CITY           SKY/WX    TMP DP  RH WIND       PRES   REMARKS
SUPERIOR ARPT  CLOUDY    30  24  78 N9        30.20R WCI  22
ASHLAND        CLOUDY    31  30  96 NW6       30.15R FOG     WCI  25
HAYWARD        CLOUDY    31  28  89 VRB5      30.13R WCI  26
SIREN          CLOUDY    29  28  93 N13       30.19R WCI  19
RICE LAKE      CLOUDY    32  29  90 NW5       30.16R WCI  27
LADYSMITH      CLOUDY    34  33  96 NW5       30.11R FOG     WCI  30
EAU CLAIRE     CLOUDY    35  33  92 NW10      30.13R WCI  27
MENOMONIE      CLOUDY    34  34  99 NW13      30.14R WCI  25
NEW RICHMOND   CLOUDY    30  30  98 NW12G18   30.19R FOG     WCI  21
OSCEOLA        CLOUDY    31  29  93 NW9       30.23R WCI  22
$$

WIZ003>005-009-010-017-018-171600-
NORTH CENTRAL WISCONSIN

CITY           SKY/WX    TMP DP  RH WIND       PRES   REMARKS
WOODRUFF       CLOUDY    37  34  92 S3        30.07R
RHINELANDER    CLOUDY    32  30  92 SE6       30.06S WCI  26
EAGLE RIVER    LGT SNOW  33  32  96 SE7       30.06S WCI  27
LAND O LAKES   LGT SNOW  33  31  92 SE6       30.08S WCI  27
PHILLIPS       CLOUDY    32  32  99 CALM      30.07R FOG
TOMAHAWK       CLOUDY    33  31  94 CALM      30.07R FOG
MEDFORD        CLOUDY    34  32  93 CALM      30.07R FOG
MERRILL        CLOUDY    35  33  90 CALM      30.07R
$$

WIZ029-030-035-036-043>047-171600-
CENTRAL WISCONSIN

CITY           SKY/WX    TMP DP  RH WIND       PRES   REMARKS
WAUSAU         CLOUDY    35  32  88 E9        30.06R FOG     WCI  28
MOSINEE        CLOUDY    36  34  93 E8        30.07R WCI  29
MARSHFIELD     CLOUDY    40  36  86 CALM      30.07R
STEVENS POINT  SUNNY     36  32  85 E7        30.07R WCI  31
WAUPACA        CLOUDY    43  34  70 E5        30.08R
WAUTOMA        MOSUNNY   49  34  56 W10       30.06R
WISC RAPIDS    SUNNY     45  34  65 CALM      30.08R
CAMP DOUGLAS   PTSUNNY   46  41  81 SW10      30.08R
$$

WIZ011>013-019>022-031-037>040-048>050-171600-
NORTHEAST WISCONSIN

CITY           SKY/WX    TMP DP  RH WIND       PRES   REMARKS
ANTIGO         CLOUDY    33  31  92 SE13      30.07R FOG     WCI  24
STURGEON BAY   CLOUDY    36  28  75 SE9       30.14S WCI  29
GREEN BAY      CLOUDY    38  31  76 SE9       30.10R WCI  31
MANITOWOC      CLOUDY    40  32  73 S16G23    30.12S WCI  31
APPLETON       CLOUDY    39  30  70 SE7       30.08R WCI  34
CLINTONVILLE   CLOUDY    37  32  81 E7        30.09R WCI  32
OSHKOSH        CLOUDY    43  33  68 S12       30.07R
$$

WIZ032>034-041-042-053>061-171600-
SOUTHWEST WISCONSIN

CITY           SKY/WX    TMP DP  RH WIND       PRES   REMARKS
LA CROSSE      CLOUDY    41  35  79 W15       30.14R HAZE
SPARTA         PTSUNNY   47  35  62 W12G20    30.11R
VIROQUA        CLOUDY    41  38  89 W15       30.11R
BOSCOBEL       CLOUDY    41  34  76 SW6       30.15R
PRAIRIE DU CHI CLOUDY    38  32  77 W10       30.17R WCI  32
PLATTEVILLE    CLOUDY    38  33  81 W13       30.16R WCI  30
$$

WIZ056-057-062-063-064-067-068-171600-
SOUTH CENTRAL WISCONSIN

CITY           SKY/WX    TMP DP  RH WIND       PRES   REMARKS
BARABOO/DELLS  CLOUDY    42  36  79 W9        30.09R
LONE ROCK      CLOUDY    40  35  83 W15       30.13R WCI  32
WATERTOWN      PTSUNNY   47  37  67 SW13G20   30.09R
MADISON        CLOUDY    43  35  73 W8        30.10R
MIDDLETON      CLOUDY    43  35  73 W12       30.11R
MONROE         CLOUDY    39  39 100 W16       30.12R WCI  30
JANESVILLE     CLOUDY    48  36  61 W17       30.11R
$$

WIZ051-052-058>065-066-070>072-171600-
SOUTHEAST WISCONSIN

CITY           SKY/WX    TMP DP  RH WIND       PRES   REMARKS
MILWAUKEE      PTSUNNY   52  33  48 SW16      30.12R
WAUKESHA       MOSUNNY   46  36  66 SW18      30.10R
MILWAUKEE/TIMM PTSUNNY   50  34  53 SW18G26     N/A
RACINE         SUNNY     52  34  50 SW16G23   30.13R
BURLINGTON     MOSUNNY   48  36  63 SW18      30.12R
KENOSHA        MOSUNNY   50  34  54 SW16G24   30.12R
FOND DU LAC    CLOUDY    46  33  60 SW10      30.08R
SHEBOYGAN      PTSUNNY   43  34  70 S15G23    30.10F
WEST BEND      CLOUDY    46  32  57 SW10      30.09R
JUNEAU         CLOUDY    45  32  61 S14       30.10R
$$

LSZ147-162-171600-
LAKE SUPERIOR

STATION/POSITION TIME  TEMP    WIND        PRES    WAVE
                       AIR SEA DIR/SP/G            HT/PER
                 (UTC) (F)     (DEG/KT/KT) (MB)    (FT/S)
DEVILS ISLAND    1500   31      80/ 11/ 14 1021.8R
PORT WING        1440   31     360/  4/  5 1021.3R
SAXON HARBOR     1400           60/  6/  9 1020.0R
$$

LMZ867-665-643>646-171600-
LAKE MICHIGAN

STATION/POSITION TIME  TEMP    WIND        PRES    WAVE
                       AIR SEA DIR/SP/G            HT/PER
                 (UTC) (F)     (DEG/KT/KT) (MB)    (FT/S)
NORTHPORT PIER   1400   33     120/ 16/ 23 1021.3
SISTER BAY       1423   33     130/  8/ 10   N/A
KEWAUNEE LAKESHO 1400          160/ 13/ 15   N/A
SHEBOYGAN LAKESH 1500   38     170/ 18/ 20 1020.3R
PORT WASHINGTON  1400   40     180/ 12/ 16 1020.3R
MILWAUKEE LAKESH 1500   49     230/ 16/ 20   N/A
KENOSHA   LAKESH 1500   50     230/ 10/ 19   N/A
$$

TC  - TEMPERATURE IN CELSIUS
VSB - VISIBILITY IN STATUTE MILES
WCI - WIND CHILL INDEX
HX  - HEAT INDEX




USA.gov is the U.S. government's official web portal to all federal, state and local government web resources and services.